QPF
0.00 0.00 0.00 0.00 0.00 0.00 0.00 0.00 0.00 0.00 0.00 0.01 0.01 0.01 0.01 0.00 0.00 0.00 0.00 0.00 0.00 0.00 0.00 0.00 0.00 0.00 0.00 0.00 0.00 0.00 0.00 0.00 0.00 0.00 0.00 0.00 0.00 0.00 0.00 0.00 0.00 0.00 0.00
0.00 0.00 0.00 0.00 0.00 0.00 0.00 0.00 0.00 0.00 0.00 0.00 0.00 0.00 0.00 0.00 0.00 0.00 0.00 0.00 0.00 0.00 0.00 0.00 0.00 0.00 0.00 0.00 0.00 0.00 0.00 0.00 0.00 0.00 0.00 0.00 0.00 0.00 0.00 0.00 0.00 0.00 0.00
0.00 0.00 0.00 0.00 0.00 0.00 0.00 0.00 0.00 0.00 0.00 0.00 0.00 0.00 0.00 0.01 0.00 0.00 0.00 0.00 0.00 0.00 0.00 0.00 0.00 0.00 0.00 0.00 0.00 0.00 0.00 0.00 0.00 0.00 0.00 0.00 0.00 0.00 0.00 0.00 0.00 0.00 0.00
0.00 0.00 0.00 0.00 0.00 0.00 0.00 0.00 0.00 0.00 0.00 0.00 0.00 0.00 0.00 0.00 0.00 0.00 0.00 0.00 0.00 0.00 0.00 0.00 0.00 0.00 0.00 0.00 0.00 0.00 0.00 0.00 0.00 0.00 0.00 0.00 0.00 0.00 0.00 0.00 0.00 0.00 0.00
0.00 0.00 0.00 0.00 0.00 0.00 0.00 0.00 0.00 0.00 0.00 0.00 0.00 0.00 0.00 0.00 0.00 0.00 0.00 0.00 0.00 0.00 0.00 0.00 0.00 0.00 0.00 0.00 0.00 0.00 0.00 0.00 0.00 0.00 0.00 0.00 0.00 0.00 0.00 0.00 0.00 0.00 0.00
0.00 0.00 0.00 0.00 0.00 0.00 0.00 0.00 0.00 0.00 0.00 0.00 0.00 0.00 0.00 0.00 0.00 0.00 0.00 0.00 0.00 0.00 0.00 0.00 0.00 0.00 0.00 0.00 0.00 0.00 0.00 0.00 0.00 0.00 0.00 0.00 0.00 0.00 0.00 0.00 0.00 0.00 0.00
0.00 0.00 0.00 0.00 0.00 0.00 0.00 0.00 0.00 0.00 0.00 0.00 0.00 0.00 0.00 0.00 0.00 0.00 0.00 0.00 0.00 0.00 0.00 0.00 0.00 0.00 0.00 0.00 0.00 0.00 0.00 0.00 0.00 0.00 0.00 0.00 0.00 0.00 0.01 0.01 0.01 0.01 0.01
0.00 0.00 0.00 0.00 0.00 0.00 0.00 0.00 0.00 0.00 0.00 0.00 0.00 0.00 0.00 0.00 0.00 0.00 0.00 0.00 0.00 0.00 0.00 0.00 0.00 0.00 0.00 0.00 0.00 0.00 0.00 0.00 0.01 0.00 0.00 0.00 0.00 0.01 0.02 0.02 0.02 0.01 0.00
0.00 0.00 0.00 0.00 0.00 0.00 0.00 0.00 0.00 0.00 0.00 0.00 0.00 0.00 0.00 0.00 0.00 0.00 0.00 0.00 0.00 0.00 0.00 0.00 0.00 0.00 0.00 0.00 0.00 0.00 0.00 0.00 0.00 0.01 0.01 0.01 0.01 0.01 0.01 0.01 0.00 0.00 0.00
0.00 0.00 0.00 0.00 0.00 0.00 0.00 0.00 0.00 0.00 0.00 0.00 0.00 0.00 0.00 0.00 0.00 0.00 0.00 0.00 0.00 0.00 0.00 0.00 0.00 0.00 0.00 0.00 0.00 0.01 0.01 0.01 0.01 0.01 0.01 0.00 0.00 0.00 0.00 0.00 0.00 0.01 0.01
0.00 0.00 0.00 0.00 0.00 0.00 0.00 0.00 0.00 0.00 0.00 0.00 0.00 0.00 0.00 0.00 0.00 0.00 0.00 0.00 0.00 0.00 0.00 0.00 0.00 0.00 0.00 0.00 0.01 0.01 0.01 0.01 0.01 0.01 0.01 0.00 0.00 0.00 0.00 0.01 0.01 0.01 0.00
0.00 0.00 0.00 0.00 0.00 0.00 0.00 0.00 0.00 0.00 0.00 0.00 0.00 0.00 0.00 0.00 0.00 0.00 0.00 0.00 0.00 0.00 0.00 0.00 0.00 0.00 0.00 0.00 0.01 0.01 0.01 0.01 0.01 0.01 0.01 0.01 0.01 0.01 0.01 0.01 0.01 0.01 0.01
0.01 0.00 0.00 0.00 0.00 0.00 0.00 0.00 0.00 0.00 0.00 0.00 0.00 0.00 0.00 0.00 0.00 0.00 0.00 0.00 0.00 0.00 0.00 0.00 0.00 0.00 0.00 0.00 0.00 0.01 0.01 0.01 0.01 0.01 0.01 0.01 0.01 0.01 0.01 0.01 0.01 0.01 0.01
0.01 0.01 0.01 0.00 0.00 0.00 0.00 0.00 0.00 0.00 0.00 0.00 0.00 0.00 0.00 0.00 0.00 0.00 0.00 0.00 0.00 0.00 0.00 0.00 0.00 0.00 0.00 0.00 0.00 0.00 0.01 0.01 0.01 0.01 0.01 0.01 0.01 0.01 0.01 0.01 0.01 0.01 0.01
0.00 0.01 0.01 0.00 0.00 0.00 0.00 0.00 0.00 0.00 0.00 0.00 0.00 0.00 0.00 0.00 0.00 0.00 0.00 0.00 0.00 0.00 0.00 0.00 0.00 0.00 0.00 0.00 0.00 0.00 0.01 0.01 0.01 0.01 0.01 0.01 0.01 0.01 0.01 0.01 0.01 0.02 0.02
0.00 0.00 0.01 0.00 0.00 0.00 0.00 0.00 0.00 0.00 0.00 0.00 0.00 0.00 0.00 0.00 0.00 0.00 0.00 0.00 0.00 0.00 0.00 0.00 0.00 0.00 0.00 0.00 0.00 0.00 0.00 0.01 0.01 0.01 0.00 0.01 0.01 0.01 0.01 0.01 0.01 0.01 0.01
0.00 0.00 0.00 0.00 0.00 0.00 0.00 0.00 0.00 0.00 0.00 0.00 0.00 0.00 0.00 0.00 0.00 0.00 0.00 0.00 0.00 0.00 0.00 0.00 0.00 0.00 0.00 0.00 0.00 0.01 0.00 0.00 0.00 0.00 0.00 0.00 0.00 0.01 0.01 0.01 0.01 0.01 0.01
0.00 0.00 0.00 0.00 0.00 0.00 0.00 0.00 0.00 0.00 0.00 0.00 0.00 0.00 0.00 0.00 0.00 0.00 0.00 0.00 0.00 0.00 0.00 0.00 0.00 0.00 0.00 0.00 0.00 0.01 0.00 0.00 0.00 0.00 0.00 0.01 0.00 0.00 0.01 0.01 0.01 0.00 0.01
0.00 0.00 0.00 0.00 0.00 0.00 0.00 0.00 0.00 0.00 0.00 0.00 0.00 0.00 0.00 0.00 0.00 0.00 0.00 0.00 0.00 0.00 0.00 0.00 0.00 0.00 0.00 0.00 0.00 0.00 0.00 0.01 0.01 0.01 0.00 0.00 0.00 0.01 0.01 0.00 0.00 0.00 0.00
0.00 0.00 0.00 0.00 0.00 0.00 0.00 0.00 0.00 0.00 0.00 0.00 0.00 0.00 0.00 0.00 0.00 0.00 0.00 0.00 0.00 0.00 0.00 0.00 0.00 0.00 0.00 0.00 0.00 0.00 0.00 0.01 0.01 0.01 0.01 0.01 0.01 0.01 0.01 0.00 0.00 0.00 0.00
0.00 0.00 0.00 0.00 0.00 0.00 0.00 0.00 0.00 0.00 0.00 0.00 0.00 0.00 0.00 0.00 0.00 0.00 0.00 0.00 0.00 0.00 0.00 0.00 0.00 0.00 0.00 0.00 0.00 0.00 0.00 0.00 0.00 0.00 0.00 0.00 0.01 0.01 0.01 0.01 0.00 0.01 0.01
0.01 0.00 0.00 0.00 0.00 0.00 0.00 0.00 0.00 0.00 0.00 0.00 0.00 0.00 0.00 0.00 0.00 0.00 0.00 0.00 0.00 0.00 0.00 0.00 0.00 0.00 0.00 0.00 0.00 0.00 0.00 0.00 0.00 0.00 0.00 0.00 0.00 0.00 0.00 0.00 0.00 0.01 0.00
0.01 0.00 0.00 0.00 0.00 0.00 0.00 0.00 0.00 0.00 0.00 0.00 0.00 0.00 0.00 0.00 0.00 0.00 0.00 0.00 0.00 0.00 0.00 0.00 0.00 0.00 0.00 0.00 0.00 0.00 0.00 0.00 0.00 0.00 0.00 0.00 0.01 0.00 0.00 0.00 0.00 0.00 0.00
0.01 0.01 0.00 0.00 0.00 0.00 0.00 0.00 0.00 0.00 0.00 0.00 0.00 0.00 0.00 0.00 0.00 0.00 0.00 0.00 0.00 0.00 0.00 0.00 0.00 0.00 0.00 0.00 0.00 0.00 0.00 0.00 0.00 0.00 0.00 0.00 0.00 0.00 0.00 0.00 0.00 0.00 0.00
0.02 0.01 0.01 0.00 0.00 0.00 0.00 0.00 0.00 0.00 0.00 0.00 0.00 0.00 0.00 0.00 0.00 0.00 0.00 0.00 0.00 0.00 0.00 0.00 0.00 0.00 0.00 0.00 0.00 0.00 0.00 0.00 0.00 0.00 0.00 0.00 0.00 0.00 0.00 0.00 0.00 0.00 0.00
0.01 0.01 0.00 0.00 0.00 0.00 0.00 0.00 0.00 0.00 0.00 0.00 0.00 0.00 0.00 0.00 0.00 0.00 0.00 0.00 0.00 0.00 0.00 0.00 0.00 0.00 0.00 0.00 0.00 0.00 0.00 0.00 0.00 0.00 0.00 0.00 0.00 0.00 0.00 0.00 0.00 0.00 0.00
MSLP
998.19 998.63 999.14 999.72 1000.39 1001.16 1002.04 1003.05 1004.17 1005.37 1006.60 1007.81 1008.93 1009.94 1010.80 1011.50 1012.08 1012.58 1013.04 1013.49 1013.97 1014.51 1015.09 1015.70 1016.32 1016.92 1017.49 1018.01 1018.49 1018.94 1019.36 1019.75 1020.14 1020.51 1020.85 1021.16 1021.42 1021.63 1021.79 1021.91 1022.01 1022.10 1022.20
997.18 997.65 998.20 998.81 999.51 1000.30 1001.22 1002.27 1003.45 1004.72 1006.03 1007.32 1008.53 1009.59 1010.50 1011.23 1011.82 1012.30 1012.73 1013.16 1013.63 1014.15 1014.72 1015.33 1015.96 1016.57 1017.15 1017.68 1018.18 1018.64 1019.08 1019.51 1019.94 1020.35 1020.74 1021.09 1021.39 1021.63 1021.81 1021.94 1022.04 1022.12 1022.21
996.14 996.65 997.23 997.88 998.60 999.43 1000.37 1001.46 1002.68 1004.00 1005.36 1006.71 1007.97 1009.09 1010.04 1010.80 1011.40 1011.89 1012.32 1012.75 1013.21 1013.72 1014.29 1014.91 1015.53 1016.15 1016.73 1017.27 1017.78 1018.25 1018.72 1019.18 1019.64 1020.09 1020.52 1020.92 1021.25 1021.52 1021.72 1021.86 1021.97 1022.05 1022.13
995.15 995.69 996.31 997.00 997.76 998.60 999.56 1000.66 1001.89 1003.22 1004.60 1005.97 1007.26 1008.41 1009.39 1010.18 1010.81 1011.33 1011.78 1012.22 1012.69 1013.22 1013.80 1014.41 1015.04 1015.66 1016.24 1016.79 1017.30 1017.79 1018.27 1018.75 1019.24 1019.72 1020.19 1020.63 1021.00 1021.30 1021.52 1021.68 1021.79 1021.88 1021.96
994.26 994.84 995.51 996.24 997.03 997.89 998.85 999.93 1001.13 1002.43 1003.79 1005.14 1006.42 1007.58 1008.57 1009.39 1010.06 1010.61 1011.10 1011.58 1012.09 1012.64 1013.23 1013.86 1014.50 1015.12 1015.70 1016.24 1016.76 1017.25 1017.74 1018.24 1018.75 1019.26 1019.76 1020.23 1020.63 1020.96 1021.21 1021.38 1021.51 1021.60 1021.69
993.46 994.10 994.83 995.61 996.43 997.30 998.24 999.29 1000.43 1001.67 1002.96 1004.25 1005.49 1006.62 1007.62 1008.46 1009.16 1009.76 1010.31 1010.85 1011.40 1012.00 1012.62 1013.27 1013.92 1014.54 1015.12 1015.66 1016.17 1016.66 1017.16 1017.66 1018.19 1018.72 1019.24 1019.73 1020.16 1020.52 1020.79 1020.99 1021.14 1021.24 1021.34
992.71 993.44 994.25 995.09 995.94 996.82 997.74 998.73 999.80 1000.94 1002.14 1003.34 1004.51 1005.60 1006.58 1007.43 1008.17 1008.83 1009.45 1010.05 1010.67 1011.32 1011.98 1012.66 1013.31 1013.94 1014.52 1015.05 1015.56 1016.04 1016.54 1017.04 1017.58 1018.12 1018.65 1019.16 1019.61 1019.99 1020.30 1020.52 1020.69 1020.82 1020.93
991.98 992.79 993.68 994.59 995.49 996.38 997.28 998.21 999.20 1000.24 1001.34 1002.44 1003.53 1004.56 1005.51 1006.37 1007.15 1007.87 1008.56 1009.23 1009.92 1010.62 1011.33 1012.04 1012.71 1013.33 1013.91 1014.44 1014.93 1015.41 1015.90 1016.40 1016.93 1017.48 1018.02 1018.54 1019.02 1019.42 1019.75 1020.01 1020.20 1020.36 1020.48
991.21 992.11 993.08 994.05 994.99 995.90 996.79 997.68 998.60 999.56 1000.56 1001.57 1002.57 1003.55 1004.47 1005.33 1006.14 1006.92 1007.67 1008.42 1009.17 1009.93 1010.69 1011.42 1012.10 1012.74 1013.31 1013.83 1014.32 1014.79 1015.27 1015.77 1016.29 1016.84 1017.39 1017.92 1018.41 1018.84 1019.19 1019.48 1019.70 1019.88 1020.02
990.42 991.37 992.39 993.41 994.39 995.32 996.21 997.08 997.96 998.86 999.79 1000.73 1001.67 1002.60 1003.49 1004.36 1005.20 1006.01 1006.82 1007.63 1008.44 1009.26 1010.05 1010.81 1011.51 1012.15 1012.73 1013.25 1013.73 1014.20 1014.67 1015.16 1015.69 1016.23 1016.78 1017.32 1017.81 1018.26 1018.64 1018.95 1019.20 1019.40 1019.57
989.68 990.62 991.64 992.66 993.66 994.60 995.51 996.39 997.26 998.14 999.03 999.93 1000.83 1001.73 1002.61 1003.48 1004.33 1005.18 1006.04 1006.89 1007.75 1008.60 1009.43 1010.22 1010.94 1011.59 1012.17 1012.70 1013.19 1013.65 1014.13 1014.63 1015.15 1015.69 1016.24 1016.77 1017.28 1017.73 1018.12 1018.46 1018.73 1018.96 1019.14
989.09 989.94 990.89 991.87 992.85 993.80 994.72 995.62 996.51 997.40 998.29 999.19 1000.08 1000.96 1001.84 1002.71 1003.57 1004.44 1005.32 1006.22 1007.11 1007.99 1008.85 1009.65 1010.40 1011.07 1011.67 1012.21 1012.71 1013.20 1013.68 1014.18 1014.70 1015.24 1015.78 1016.31 1016.81 1017.26 1017.66 1018.00 1018.29 1018.54 1018.74
988.77 989.45 990.26 991.14 992.05 992.97 993.90 994.82 995.75 996.67 997.60 998.51 999.42 1000.31 1001.19 1002.06 1002.93 1003.81 1004.71 1005.62 1006.53 1007.44 1008.32 1009.15 1009.92 1010.61 1011.24 1011.81 1012.34 1012.84 1013.34 1013.85 1014.37 1014.90 1015.43 1015.95 1016.43 1016.87 1017.26 1017.60 1017.89 1018.14 1018.37
988.82 989.26 989.86 990.58 991.38 992.24 993.15 994.09 995.06 996.03 996.99 997.94 998.87 999.77 1000.66 1001.53 1002.40 1003.29 1004.20 1005.12 1006.05 1006.98 1007.88 1008.74 1009.53 1010.26 1010.92 1011.52 1012.08 1012.61 1013.14 1013.65 1014.18 1014.70 1015.21 1015.70 1016.15 1016.56 1016.92 1017.24 1017.52 1017.78 1018.01
989.27 989.43 989.78 990.29 990.94 991.72 992.58 993.52 994.50 995.51 996.51 997.49 998.45 999.37 1000.26 1001.14 1002.02 1002.91 1003.82 1004.75 1005.70 1006.64 1007.57 1008.45 1009.28 1010.04 1010.74 1011.38 1011.97 1012.53 1013.07 1013.60 1014.12 1014.63 1015.11 1015.56 1015.97 1016.34 1016.66 1016.95 1017.20 1017.44 1017.66
990.10 989.96 990.04 990.33 990.81 991.47 992.27 993.17 994.16 995.17 996.20 997.20 998.17 999.11 1000.01 1000.89 1001.77 1002.67 1003.59 1004.54 1005.50 1006.47 1007.42 1008.33 1009.19 1009.99 1010.72 1011.39 1012.01 1012.59 1013.15 1013.68 1014.19 1014.68 1015.13 1015.55 1015.91 1016.23 1016.50 1016.74 1016.95 1017.15 1017.36
991.21 990.80 990.64 990.71 991.02 991.54 992.24 993.09 994.05 995.05 996.07 997.08 998.05 998.99 999.90 1000.79 1001.68 1002.59 1003.53 1004.50 1005.48 1006.47 1007.45 1008.39 1009.27 1010.09 1010.84 1011.54 1012.18 1012.77 1013.34 1013.87 1014.38 1014.84 1015.27 1015.65 1015.97 1016.24 1016.45 1016.64 1016.80 1016.96 1017.12
992.48 991.86 991.48 991.37 991.52 991.91 992.52 993.29 994.18 995.15 996.14 997.12 998.09 999.02 999.93 1000.84 1001.75 1002.68 1003.64 1004.64 1005.65 1006.67 1007.67 1008.62 1009.52 1010.35 1011.11 1011.81 1012.45 1013.05 1013.62 1014.15 1014.65 1015.10 1015.51 1015.87 1016.15 1016.38 1016.56 1016.69 1016.80 1016.90 1017.01
993.75 992.99 992.48 992.23 992.25 992.53 993.03 993.72 994.54 995.44 996.38 997.33 998.28 999.20 1000.12 1001.04 1001.97 1002.94 1003.93 1004.96 1006.00 1007.04 1008.04 1009.00 1009.90 1010.72 1011.47 1012.16 1012.80 1013.39 1013.95 1014.48 1014.98 1015.44 1015.84 1016.19 1016.47 1016.68 1016.82 1016.92 1016.98 1017.03 1017.08
994.91 994.10 993.52 993.19 993.12 993.31 993.72 994.32 995.06 995.89 996.78 997.69 998.60 999.52 1000.44 1001.38 1002.35 1003.35 1004.39 1005.44 1006.50 1007.55 1008.55 1009.50 1010.37 1011.17 1011.90 1012.56 1013.17 1013.76 1014.31 1014.84 1015.35 1015.83 1016.26 1016.62 1016.91 1017.13 1017.27 1017.35 1017.38 1017.38 1017.38
995.91 995.10 994.51 994.15 994.04 994.17 994.51 995.04 995.71 996.47 997.31 998.18 999.07 999.98 1000.92 1001.88 1002.88 1003.92 1004.98 1006.06 1007.13 1008.17 1009.16 1010.08 1010.91 1011.67 1012.36 1012.98 1013.57 1014.14 1014.69 1015.23 1015.77 1016.27 1016.74 1017.15 1017.48 1017.73 1017.89 1017.97 1017.99 1017.96 1017.90
996.72 995.97 995.40 995.06 994.94 995.04 995.34 995.81 996.43 997.15 997.94 998.78 999.67 1000.59 1001.54 1002.53 1003.56 1004.62 1005.70 1006.79 1007.85 1008.88 1009.83 1010.71 1011.49 1012.20 1012.84 1013.43 1013.99 1014.54 1015.10 1015.66 1016.23 1016.78 1017.30 1017.76 1018.15 1018.45 1018.65 1018.75 1018.77 1018.73 1018.63
997.36 996.69 996.19 995.88 995.78 995.88 996.16 996.61 997.20 997.89 998.66 999.50 1000.39 1001.32 1002.30 1003.32 1004.37 1005.45 1006.54 1007.62 1008.66 1009.65 1010.56 1011.38 1012.12 1012.77 1013.36 1013.92 1014.46 1015.00 1015.57 1016.16 1016.76 1017.36 1017.94 1018.47 1018.92 1019.27 1019.51 1019.65 1019.68 1019.63 1019.51
997.87 997.28 996.85 996.60 996.53 996.65 996.95 997.40 997.98 998.68 999.46 1000.31 1001.22 1002.18 1003.19 1004.23 1005.31 1006.39 1007.48 1008.53 1009.54 1010.48 1011.34 1012.11 1012.79 1013.40 1013.96 1014.49 1015.02 1015.57 1016.15 1016.76 1017.40 1018.04 1018.67 1019.24 1019.74 1020.15 1020.43 1020.59 1020.64 1020.59 1020.46
998.28 997.78 997.42 997.22 997.20 997.36 997.68 998.16 998.77 999.49 1000.31 1001.19 1002.14 1003.14 1004.18 1005.25 1006.33 1007.42 1008.48 1009.51 1010.48 1011.37 1012.18 1012.90 1013.55 1014.12 1014.66 1015.18 1015.71 1016.27 1016.87 1017.50 1018.16 1018.83 1019.49 1020.09 1020.62 1021.04 1021.35 1021.52 1021.58 1021.52 1021.38
998.64 998.20 997.91 997.77 997.80 998.00 998.37 998.89 999.54 1000.31 1001.18 1002.11 1003.11 1004.15 1005.23 1006.32 1007.41 1008.49 1009.54 1010.53 1011.46 1012.32 1013.09 1013.78 1014.40 1014.96 1015.50 1016.03 1016.57 1017.14 1017.75 1018.39 1019.06 1019.73 1020.38 1020.98 1021.50 1021.92 1022.21 1022.38 1022.43 1022.36 1022.20
Thickness
5702 5709 5713 5715 5714 5713 5711 5708 5705 5703 5700 5697 5695 5692 5690 5689 5688 5687 5685 5683 5681 5678 5675 5672 5669 5665 5661 5656 5653 5648 5642 5637 5633 5626 5620 5618 5616 5613 5609 5606 5601 5596 5591
5695 5702 5708 5710 5711 5711 5710 5708 5705 5703 5701 5699 5697 5694 5689 5687 5685 5684 5682 5681 5679 5676 5673 5670 5666 5662 5657 5653 5649 5644 5637 5632 5628 5621 5613 5608 5605 5604 5604 5600 5595 5590 5586
5690 5698 5703 5706 5708 5708 5709 5709 5706 5703 5701 5698 5693 5688 5684 5681 5680 5679 5679 5678 5676 5674 5671 5667 5663 5659 5654 5649 5645 5640 5634 5626 5622 5619 5612 5604 5600 5596 5595 5592 5589 5584 5580
5688 5695 5700 5703 5706 5708 5709 5708 5706 5703 5700 5696 5692 5689 5686 5684 5685 5682 5679 5676 5674 5671 5668 5664 5660 5656 5652 5647 5642 5638 5632 5624 5617 5613 5610 5606 5601 5593 5586 5583 5582 5579 5574
5685 5692 5698 5702 5705 5707 5706 5706 5703 5700 5698 5695 5693 5689 5687 5686 5683 5679 5675 5673 5671 5669 5666 5662 5658 5653 5649 5644 5639 5634 5628 5622 5615 5609 5604 5600 5596 5592 5583 5576 5573 5570 5569
5680 5687 5695 5699 5701 5703 5702 5701 5699 5698 5696 5694 5692 5690 5687 5684 5680 5677 5674 5671 5669 5666 5663 5659 5655 5651 5646 5641 5637 5631 5625 5619 5613 5607 5601 5596 5589 5584 5579 5573 5568 5564 5562
5674 5679 5685 5690 5695 5696 5698 5698 5696 5695 5694 5693 5691 5690 5688 5684 5682 5679 5675 5671 5668 5665 5662 5657 5653 5649 5644 5638 5633 5628 5622 5616 5610 5604 5599 5593 5588 5584 5578 5571 5565 5560 5556
5671 5676 5682 5687 5690 5692 5694 5695 5694 5693 5693 5692 5690 5689 5686 5683 5681 5679 5676 5672 5670 5666 5661 5655 5650 5646 5640 5635 5630 5624 5618 5612 5607 5601 5595 5589 5585 5580 5574 5567 5559 5552 5548
5668 5673 5678 5683 5685 5687 5690 5692 5692 5691 5691 5691 5689 5687 5685 5682 5680 5678 5675 5671 5667 5663 5657 5652 5647 5642 5637 5631 5626 5620 5614 5608 5602 5597 5591 5585 5580 5575 5569 5563 5556 5547 5539
5661 5667 5672 5676 5681 5684 5686 5687 5688 5689 5689 5688 5687 5686 5684 5682 5678 5675 5671 5668 5664 5659 5654 5649 5644 5639 5633 5628 5622 5616 5610 5603 5598 5592 5586 5581 5575 5570 5563 5557 5551 5544 5536
5653 5659 5664 5670 5675 5677 5679 5680 5681 5682 5683 5684 5683 5682 5680 5678 5675 5671 5669 5665 5661 5656 5651 5646 5640 5635 5629 5624 5617 5611 5605 5599 5593 5587 5582 5576 5570 5563 5557 5551 5545 5538 5532
5646 5651 5656 5661 5666 5669 5672 5675 5676 5677 5679 5680 5679 5677 5675 5673 5670 5667 5665 5661 5656 5652 5647 5642 5636 5631 5625 5620 5614 5607 5601 5595 5589 5583 5577 5570 5564 5557 5551 5544 5538 5532 5526
5637 5641 5646 5651 5658 5662 5666 5669 5671 5672 5673 5674 5673 5671 5669 5667 5665 5663 5660 5656 5652 5647 5642 5637 5632 5626 5621 5615 5610 5603 5597 5591 5585 5579 5572 5565 5558 5551 5544 5538 5532 5526 5520
5626 5631 5636 5643 5649 5654 5658 5661 5664 5665 5666 5666 5666 5665 5664 5663 5660 5658 5654 5650 5646 5642 5637 5632 5626 5621 5616 5610 5604 5598 5592 5585 5579 5573 5566 5560 5553 5546 5539 5532 5525 5518 5510
5615 5621 5628 5634 5639 5644 5648 5651 5654 5657 5658 5658 5658 5658 5657 5656 5653 5650 5647 5644 5639 5635 5630 5625 5619 5615 5609 5604 5598 5592 5585 5579 5572 5565 5559 5553 5546 5540 5534 5526 5518 5510 5501
5603 5610 5618 5625 5631 5636 5639 5642 5645 5648 5649 5650 5650 5650 5649 5647 5645 5643 5640 5635 5631 5627 5622 5617 5612 5607 5603 5598 5592 5585 5578 5572 5565 5558 5551 5545 5538 5532 5526 5519 5512 5504 5494
5591 5599 5607 5615 5623 5628 5631 5633 5637 5639 5640 5641 5642 5641 5641 5639 5637 5635 5631 5627 5623 5619 5614 5610 5605 5600 5595 5590 5584 5578 5571 5564 5557 5551 5543 5537 5530 5523 5516 5510 5503 5495 5487
5579 5589 5598 5605 5612 5619 5622 5625 5627 5630 5632 5633 5633 5633 5632 5631 5629 5626 5623 5620 5616 5612 5607 5602 5597 5591 5586 5581 5576 5569 5562 5555 5549 5543 5536 5529 5522 5515 5508 5500 5492 5483 5476
5569 5579 5589 5597 5605 5610 5614 5616 5618 5620 5622 5624 5625 5626 5625 5623 5621 5618 5615 5611 5607 5602 5598 5593 5588 5583 5577 5572 5567 5561 5553 5546 5539 5533 5527 5521 5513 5507 5500 5491 5482 5473 5464
5560 5571 5581 5589 5595 5601 5605 5607 5609 5612 5615 5618 5619 5618 5618 5616 5613 5610 5606 5602 5598 5593 5589 5583 5579 5574 5568 5563 5558 5553 5546 5538 5530 5523 5517 5511 5505 5498 5490 5482 5472 5462 5454
5552 5563 5573 5580 5587 5594 5598 5600 5602 5605 5609 5610 5611 5610 5609 5607 5605 5600 5597 5593 5588 5583 5578 5573 5568 5563 5558 5553 5549 5544 5538 5530 5522 5514 5507 5501 5495 5488 5481 5473 5463 5454 5445
5544 5554 5564 5572 5580 5587 5591 5594 5596 5599 5601 5602 5602 5601 5600 5598 5595 5591 5586 5583 5579 5574 5568 5562 5556 5551 5547 5543 5539 5534 5529 5522 5514 5505 5497 5491 5485 5478 5470 5461 5453 5444 5434
5536 5546 5556 5564 5572 5579 5584 5588 5590 5593 5594 5593 5593 5592 5590 5588 5585 5582 5578 5574 5570 5565 5559 5553 5546 5540 5535 5532 5528 5523 5518 5511 5503 5495 5488 5481 5474 5466 5457 5449 5440 5431 5420
5528 5538 5548 5557 5564 5571 5577 5581 5585 5586 5587 5585 5583 5582 5580 5577 5574 5572 5569 5566 5562 5556 5550 5544 5538 5531 5525 5520 5516 5510 5505 5499 5491 5483 5476 5469 5461 5453 5444 5436 5426 5417 5407
5521 5532 5542 5551 5558 5565 5570 5574 5578 5580 5578 5577 5575 5573 5571 5568 5563 5559 5556 5555 5552 5551 5545 5538 5532 5525 5517 5512 5508 5502 5494 5487 5480 5472 5463 5454 5446 5438 5430 5422 5413 5404 5394
5516 5526 5536 5545 5552 5558 5562 5567 5570 5572 5572 5569 5567 5564 5561 5557 5552 5548 5541 5539 5539 5537 5534 5530 5525 5518 5512 5504 5498 5492 5485 5478 5471 5462 5452 5443 5435 5427 5419 5410 5401 5392 5382